Location: ?????
(30.2541°N, 31.0910°E)
Time: 02:36:48
(UTC+00:00)

Cosmos 1461 - Pass Details

Date: 27 September 2022
Orbit: 501 x 646 km, 65.0° (Epoch: 30 November)

Event Time Altitude Azimuth Distance (km) Brightness Sun altitude
Rises 01:40:17 0° 146° (SE) 2,590 6.5 -27.8°
Enters shadow 02:50:52 -57° 209° (SSW) 11,318 9.4 -12.9°
Maximum altitude 03:22:18 63° 298° (WNW) 583 2.7 -6.1°
